EW9925 Weather Reports


time (UTC)temp
C
wind
direction
speed
KPH
gust
KPH
rain 1hr
cm
rain 24hr
cm
rain mn
cm
humidity
%
barometer
mb
20260507223813 21 305 4.8 14.5 0.00 0.00 0.00 48 1008.5
20260507223309 21 68 4.8 9.7 0.00 0.00 0.00 50 1008.4
20260507222806 20 83 3.2 8.0 0.00 0.00 0.00 52 1008.4
20260507222305 20 103 8.0 16.1 0.00 0.00 0.00 51 1008.4
20260507221800 21 259 3.2 9.7 0.00 0.00 0.00 48 1008.6
20260507221256 21 250 4.8 8.0 0.00 0.00 0.00 49 1008.6
20260507220752 21 178 4.8 6.4 0.00 0.00 0.00 48 1008.7
20260507220251 21 334 3.2 9.7 0.00 0.00 0.00 51 1008.8
20260507215746 21 166 1.6 8.0 0.00 0.00 0.00 50 1008.8
20260507215244 20 143 0.0 6.4 0.00 0.00 0.00 54 1009.0
20260507214741 20 96 0.0 8.0 0.00 0.00 0.00 52 1008.8
20260507214238 20 92 1.6 8.0 0.00 0.00 0.00 51 1008.9
20260507213733 20 187 4.8 8.0 0.00 0.00 0.00 55 1008.9
20260507213231 20 66 3.2 6.4 0.00 0.00 0.00 56 1009.1
20260507212727 20 60 6.4 12.9 0.00 0.00 0.00 56 1009.1
20260507212224 20 318 4.8 6.4 0.00 0.00 0.00 53 1009.1
20260507211720 19 349 6.4 8.0 0.00 0.00 0.00 57 1009.2
20260507211216 20 97 11.3 11.3 0.00 0.00 0.00 57 1009.2
20260507210714 20 49 3.2 4.8 0.00 0.00 0.00 57 1009.3
20260507210210 18 337 6.4 11.3 0.00 0.00 0.00 56 1009.2
20260507205707 18 148 11.3 12.9 0.00 0.00 0.00 56 1009.5
20260507205204 18 292 4.8 12.9 0.00 0.00 0.00 61 1009.8
20260507204700 18 62 0.0 11.3 0.00 0.00 0.00 57 1009.6
20260507204158 18 275 4.8 14.5 0.00 0.00 0.00 60 1009.5
20260507203656 18 286 6.4 8.0 0.00 0.00 0.00 62 1009.7
20260507203153 19 134 4.8 8.0 0.00 0.00 0.00 58 1009.8
20260507202648 18 301 3.2 11.3 0.00 0.00 0.00 60 1009.8
20260507202144 18 353 1.6 4.8 0.00 0.00 0.00 66 1009.8
20260507201639 17 96 6.4 19.3 0.00 0.00 0.00 64 1009.9
20260507201137 17 130 4.8 14.5 0.00 0.00 0.00 64 1010.0
20260507200633 18 135 4.8 11.3 0.00 0.00 0.00 67 1009.9
20260507200129 18 324 0.0 8.0 0.00 0.00 0.00 65 1010.0
20260507195626 17 144 3.2 8.0 0.00 0.00 0.00 66 1009.9
20260507195123 17 298 4.8 6.4 0.00 0.00 0.00 63 1010.1
20260507194620 17 314 8.0 16.1 0.00 0.00 0.00 63 1010.1
20260507194115 17 296 9.7 14.5 0.00 0.00 0.00 65 1010.3
20260507193612 17 293 3.2 12.9 0.00 0.00 0.00 64 1010.5
20260507193109 18 19 3.2 8.0 0.00 0.00 0.00 67 1010.3
20260507192606 17 299 4.8 6.4 0.00 0.00 0.00 65 1010.2
20260507192103 16 143 3.2 14.5 0.00 0.00 0.00 69 1010.4
20260507191558 17 79 0.0 9.7 0.00 0.00 0.00 68 1010.4
20260507191055 17 313 3.2 8.0 0.00 0.00 0.00 67 1010.5
20260507190552 17 180 6.4 6.4 0.00 0.00 0.00 66 1010.6
20260507190051 16 216 3.2 14.5 0.00 0.00 0.00 71 1010.6
20260507185549 17 67 8.0 11.3 0.00 0.00 0.00 66 1010.5
20260507185045 16 233 0.0 4.8 0.00 0.00 0.00 69 1010.6
20260507184544 16 105 9.7 16.1 0.00 0.00 0.00 68 1011.0
20260507184041 16 182 3.2 12.9 0.00 0.00 0.00 70 1010.6
20260507183537 17 105 3.2 8.0 0.00 0.00 0.00 74 1010.9
20260507183034 17 100 6.4 9.7 0.00 0.00 0.00 69 1010.9
20260507182530 17 68 16.1 16.1 0.00 0.00 0.00 67 1010.8
20260507182026 16 268 0.0 11.3 0.00 0.00 0.00 75 1010.9
20260507181524 17 274 6.4 16.1 0.00 0.00 0.00 68 1010.9
20260507181020 16 167 8.0 14.5 0.00 0.00 0.00 72 1011.0
20260507180516 16 151 4.8 8.0 0.00 0.00 0.00 69 1010.9
20260507180013 16 218 3.2 4.8 0.00 0.00 0.00 72 1010.8
20260507175509 15 288 1.6 6.4 0.00 0.00 0.00 73 1011.1
20260507175007 15 97 3.2 9.7 0.00 0.00 0.00 74 1011.3
20260507174504 15 41 6.4 8.0 0.00 0.00 0.00 75 1011.3
20260507174002 15 86 1.6 8.0 0.00 0.00 0.00 72 1011.2
20260507173458 15 243 0.0 9.7 0.00 0.00 0.00 76 1011.2
20260507172955 14 105 9.7 12.9 0.00 0.00 0.00 75 1011.2
20260507172451 16 96 6.4 11.3 0.00 0.00 0.00 73 1011.2
20260507171948 16 89 4.8 6.4 0.00 0.00 0.00 77 1011.2
20260507171444 16 333 3.2 8.0 0.00 0.00 0.00 74 1011.2
20260507170941 15 225 1.6 6.4 0.00 0.00 0.00 73 1011.2
20260507170438 15 95 4.8 9.7 0.00 0.00 0.00 77 1011.3
20260507165934 14 290 6.4 8.0 0.00 0.00 0.00 76 1011.3
20260507165431 14 294 6.4 11.3 0.00 0.00 0.00 75 1011.2
20260507164926 15 339 4.8 9.7 0.00 0.00 0.00 76 1011.1
20260507164424 14 115 8.0 16.1 0.00 0.00 0.00 77 1011.1
20260507163920 14 256 4.8 9.7 0.00 0.00 0.00 77 1011.2
20260507163418 15 58 4.8 6.4 0.00 0.00 0.00 79 1011.1
20260507162915 14 289 6.4 9.7 0.00 0.00 0.00 77 1011.4
20260507162410 14 6 3.2 6.4 0.00 0.00 0.00 78 1011.3
20260507161908 12 98 3.2 8.0 0.00 0.00 0.00 81 1011.3
20260507161403 13 118 8.0 12.9 0.00 0.00 0.00 80 1011.3
20260507160900 14 46 6.4 8.0 0.00 0.00 0.00 80 1011.3
20260507160356 13 231 1.6 4.8 0.00 0.00 0.00 81 1011.2
20260507155852 13 349 3.2 6.4 0.00 0.00 0.00 82 1011.2
20260507155348 12 68 0.0 6.4 0.00 0.00 0.00 83 1011.4
20260507154845 12 239 0.0 4.8 0.00 0.00 0.00 84 1011.4
20260507154342 12 198 0.0 6.4 0.00 0.00 0.00 83 1011.3
20260507153839 12 69 0.0 6.4 0.00 0.00 0.00 84 1011.6
20260507153336 12 49 0.0 3.2 0.00 0.00 0.00 84 1011.5
20260507152832 12 41 1.6 4.8 0.00 0.00 0.00 86 1011.4
20260507152329 12 306 4.8 12.9 0.00 0.00 0.00 85 1011.5
20260507151825 12 46 1.6 4.8 0.00 0.00 0.00 85 1011.3
20260507151321 12 247 3.2 8.0 0.00 0.00 0.00 86 1011.4
20260507150818 12 84 0.0 4.8 0.00 0.00 0.00 87 1011.4
20260507150315 11 27 4.8 9.7 0.00 0.00 0.00 86 1011.4
20260507145811 11 290 0.0 3.2 0.00 0.00 0.00 87 1011.6
20260507145307 11 308 3.2 3.2 0.00 0.00 0.00 89 1011.5
20260507144805 11 22 1.6 4.8 0.00 0.00 0.00 91 1011.7
20260507144302 11 50 0.0 3.2 0.00 0.00 0.00 92 1011.3
20260507143758 11 38 0.0 4.8 0.00 0.00 0.00 92 1011.4
20260507143256 11 315 1.6 4.8 0.00 0.00 0.00 92 1011.3
20260507142752 11 15 0.0 3.2 0.00 0.00 0.00 92 1011.4
20260507142248 11 315 0.0 3.2 0.00 0.00 0.00 93 1011.3
20260507141745 11 15 0.0 3.2 0.00 0.00 0.00 93 1011.3
20260507141242 11 7 3.2 4.8 0.00 0.00 0.00 94 1011.3
20260507140738 11 335 0.0 4.8 0.00 0.00 0.00 93 1011.2
20260507140236 11 297 0.0 1.6 0.00 0.00 0.00 93 1011.1
20260507135732 11 36 1.6 3.2 0.00 0.00 0.00 94 1010.9
20260507135230 11 358 1.6 3.2 0.00 0.00 0.00 94 1011.0
20260507134726 10 44 0.0 1.6 0.00 0.00 0.00 94 1011.0
20260507134222 10 38 1.6 3.2 0.00 0.00 0.00 94 1010.8
20260507133718 10 76 0.0 3.2 0.00 0.00 0.00 94 1011.0
20260507133215 10 120 3.2 3.2 0.00 0.00 0.00 94 1010.9
20260507132713 10 110 1.6 3.2 0.00 0.00 0.00 95 1010.6
20260507132209 10 117 1.6 3.2 0.00 0.00 0.00 95 1011.0
20260507131706 10 94 1.6 3.2 0.00 0.00 0.00 95 1010.9
20260507131204 10 57 1.6 3.2 0.00 0.00 0.00 95 1011.1
20260507130700 10 70 1.6 3.2 0.00 0.00 0.00 95 1011.1
20260507130157 10 63 1.6 3.2 0.00 0.00 0.00 95 1011.2
20260507125656 10 39 0.0 1.6 0.00 0.00 0.00 94 1011.0
20260507125148 10 71 1.6 3.2 0.00 0.00 0.00 94 1011.1
20260507124644 10 81 0.0 3.2 0.00 0.00 0.00 94 1011.1
20260507124142 10 94 0.0 3.2 0.00 0.00 0.00 94 1011.0
20260507123640 10 89 0.0 1.6 0.00 0.00 0.00 94 1011.1
20260507123137 10 61 1.6 3.2 0.00 0.00 0.00 94 1011.1
20260507122632 10 61 0.0 3.2 0.00 0.00 0.00 94 1011.3
20260507122128 10 85 3.2 3.2 0.00 0.00 0.00 94 1011.1
20260507121624 10 60 0.0 3.2 0.00 0.00 0.00 94 1011.1
20260507121120 10 29 0.0 1.6 0.00 0.00 0.00 93 1011.2
20260507120616 10 89 1.6 3.2 0.00 0.00 0.00 93 1011.3
20260507120113 10 335 0.0 3.2 0.00 0.00 0.00 93 1011.3
20260507115609 10 85 0.0 3.2 0.00 0.00 0.00 93 1011.5
20260507115105 10 36 1.6 3.2 0.00 0.00 0.00 93 1011.4
20260507114601 10 65 0.0 3.2 0.00 0.00 0.00 93 1011.4
20260507114059 10 117 0.0 1.6 0.00 0.00 0.00 93 1011.4
20260507113555 10 89 0.0 3.2 0.00 0.00 0.00 93 1011.4
20260507113053 10 78 1.6 4.8 0.00 0.00 0.00 93 1011.5
20260507112551 11 122 1.6 3.2 0.00 0.00 0.00 93 1011.4
20260507112047 10 119 0.0 3.2 0.00 0.00 0.00 93 1011.5
20260507111544 10 89 0.0 3.2 0.00 0.00 0.00 93 1011.5
20260507111041 10 45 1.6 3.2 0.00 0.00 0.00 93 1011.6
20260507110537 11 46 1.6 4.8 0.00 0.00 0.00 93 1011.4
20260507110034 11 99 0.0 1.6 0.00 0.00 0.00 93 1011.7
20260507105531 10 311 0.0 3.2 0.00 0.00 0.00 93 1011.7
20260507105026 11 122 1.6 3.2 0.00 0.00 0.00 93 1011.5
20260507104524 11 53 0.0 4.8 0.00 0.00 0.00 93 1011.7
20260507104021 11 336 3.2 3.2 0.00 0.00 0.00 93 1011.7
20260507103517 11 37 0.0 4.8 0.00 0.00 0.00 93 1011.8
20260507103013 11 31 0.0 4.8 0.00 0.00 0.00 93 1011.8
20260507102510 11 301 0.0 3.2 0.00 0.00 0.00 92 1011.8
20260507102007 11 284 0.0 1.6 0.00 0.00 0.00 93 1011.8
20260507101502 11 296 0.0 4.8 0.00 0.00 0.00 93 1011.8
20260507100958 11 70 0.0 3.2 0.00 0.00 0.00 92 1011.8
20260507100450 11 106 3.2 4.8 0.00 0.00 0.00 92 1011.8
20260507095948 11 25 0.0 6.4 0.00 0.00 0.00 93 1011.9
20260507095446 11 297 0.0 4.8 0.00 0.00 0.00 93 1011.9
20260507094942 11 309 0.0 3.2 0.00 0.00 0.00 93 1012.0
20260507094438 11 60 0.0 3.2 0.00 0.00 0.00 93 1011.9
20260507093935 11 32 0.0 3.2 0.00 0.00 0.00 92 1012.1
20260507093433 11 72 3.2 4.8 0.00 0.00 0.00 93 1012.0
20260507092931 11 300 1.6 4.8 0.00 0.00 0.00 92 1011.9
20260507092427 11 68 1.6 3.2 0.00 0.00 0.00 93 1012.1
20260507091924 11 50 0.0 0.0 0.00 0.00 0.00 93 1012.1
20260507091421 11 109 1.6 4.8 0.00 0.00 0.00 92 1012.3
20260507090916 11 309 3.2 4.8 0.00 0.00 0.00 93 1012.3
20260507090413 11 288 3.2 4.8 0.00 0.00 0.00 93 1012.3
20260507085909 11 62 0.0 1.6 0.00 0.00 0.00 93 1012.3
20260507085406 11 269 0.0 4.8 0.00 0.00 0.00 93 1012.2
20260507084904 11 25 0.0 4.8 0.00 0.00 0.00 93 1012.3
20260507084400 11 347 1.6 3.2 0.00 0.00 0.00 92 1012.2
20260507083857 11 1 3.2 6.4 0.00 0.00 0.00 92 1012.4
20260507083353 11 300 3.2 4.8 0.00 0.00 0.00 92 1012.2
20260507082850 11 41 0.0 3.2 0.00 0.00 0.00 92 1012.2
20260507082345 11 312 1.6 4.8 0.00 0.00 0.00 92 1012.4
20260507081843 11 7 1.6 3.2 0.00 0.00 0.00 92 1012.3
20260507081339 11 93 1.6 3.2 0.00 0.00 0.00 92 1012.2
20260507080836 11 115 0.0 1.6 0.00 0.00 0.00 92 1012.2
20260507080332 11 88 3.2 4.8 0.00 0.00 0.00 93 1012.2
20260507075828 10 8 1.6 3.2 0.00 0.00 0.00 92 1012.1
20260507075324 11 45 0.0 4.8 0.00 0.00 0.00 92 1012.4
20260507074820 10 33 0.0 4.8 0.00 0.00 0.00 92 1012.3
20260507074318 10 75 1.6 4.8 0.00 0.00 0.00 92 1012.3
20260507073815 10 151 0.0 3.2 0.00 0.00 0.00 92 1012.4
20260507073312 10 77 0.0 4.8 0.00 0.00 0.00 93 1012.4
20260507072809 10 122 1.6 4.8 0.00 0.00 0.00 92 1012.3
20260507072308 10 322 1.6 3.2 0.00 0.00 0.00 92 1012.3
20260507071804 10 286 1.6 3.2 0.00 0.00 0.00 92 1012.4
20260507071300 10 321 0.0 6.4 0.00 0.00 0.00 92 1012.3
20260507070757 10 73 0.0 6.4 0.00 0.00 0.00 92 1012.2
20260507070254 10 321 3.2 4.8 0.00 0.00 0.00 92 1012.3
20260507065751 10 51 1.6 3.2 0.00 0.00 0.00 92 1012.2
20260507065247 10 224 0.0 4.8 0.00 0.00 0.00 93 1012.2
20260507064745 10 42 3.2 3.2 0.00 0.00 0.00 93 1012.2
20260507064243 10 335 3.2 8.0 0.00 0.00 0.00 93 1012.2
20260507063740 10 105 3.2 4.8 0.00 0.00 0.00 93 1012.5
20260507063237 10 82 3.2 6.4 0.00 0.00 0.00 93 1012.0
20260507062734 10 57 0.0 3.2 0.00 0.00 0.00 94 1012.1
20260507062231 10 234 0.0 4.8 0.00 0.00 0.00 93 1012.2
20260507061730 10 27 0.0 4.8 0.00 0.00 0.00 93 1012.4
20260507061227 10 89 0.0 4.8 0.00 0.00 0.00 93 1012.2
20260507060725 10 24 1.6 4.8 0.00 0.00 0.00 93 1012.2
20260507060221 10 89 3.2 3.2 0.00 0.00 0.00 93 1012.1
20260507055718 10 75 0.0 4.8 0.00 0.00 0.00 94 1012.3
20260507055213 10 120 3.2 4.8 0.00 0.00 0.00 94 1012.2
20260507054709 10 119 1.6 6.4 0.00 0.00 0.00 93 1012.1
20260507054207 10 125 0.0 3.2 0.00 0.00 0.00 92 1012.1
20260507053704 10 282 3.2 4.8 0.00 0.00 0.00 92 1011.9
20260507053202 10 89 0.0 4.8 0.00 0.00 0.00 92 1012.2
20260507052701 10 170 0.0 6.4 0.00 0.00 0.00 92 1012.3
20260507052156 10 100 3.2 8.0 0.00 0.00 0.00 91 1012.2
20260507051654 10 80 4.8 8.0 0.00 0.00 0.00 91 1012.3
20260507051150 10 253 0.0 9.7 0.00 0.00 0.00 92 1012.3
20260507050647 10 285 4.8 12.9 0.00 0.00 0.00 91 1012.3
20260507050144 10 232 3.2 11.3 0.00 0.00 0.00 91 1012.2
20260507045641 10 29 6.4 12.9 0.00 0.00 0.00 92 1012.3
20260507045137 10 28 0.0 8.0 0.00 0.00 0.00 92 1012.0
20260507044635 10 84 1.6 9.7 0.00 0.00 0.00 91 1012.2
20260507044131 10 54 4.8 6.4 0.00 0.00 0.00 92 1012.0
20260507043627 10 104 3.2 6.4 0.00 0.00 0.00 92 1011.9
20260507043124 10 52 0.0 12.9 0.00 0.00 0.00 91 1012.2
20260507042621 11 71 6.4 11.3 0.00 0.00 0.00 91 1012.0
20260507042116 10 63 3.2 6.4 0.00 0.00 0.00 91 1012.0
20260507041613 10 268 1.6 9.7 0.00 0.00 0.00 91 1011.8
20260507041110 11 306 3.2 8.0 0.00 0.00 0.00 91 1011.8
20260507040607 11 310 4.8 8.0 0.00 0.00 0.00 91 1011.7
20260507035558 11 338 3.2 4.8 0.00 0.00 0.00 91 1011.5
20260507035055 11 117 1.6 6.4 0.00 0.00 0.00 90 1011.6
20260507034552 11 68 4.8 9.7 0.00 0.00 0.00 90 1011.6
20260507034050 11 136 3.2 11.3 0.00 0.00 0.00 90 1011.6
20260507033548 11 312 4.8 22.5 0.00 0.00 0.00 89 1011.4
20260507033045 11 355 3.2 9.7 0.00 0.00 0.00 89 1011.4
20260507032542 11 332 3.2 11.3 0.00 0.00 0.00 89 1011.4
20260507032038 11 280 4.8 9.7 0.00 0.00 0.00 89 1011.2
20260507031534 12 69 6.4 8.0 0.00 0.00 0.00 88 1011.1
20260507031032 12 56 0.0 11.3 0.00 0.00 0.00 88 1011.1
20260507030528 12 247 1.6 8.0 0.00 0.00 0.00 87 1011.0
20260507030026 12 294 8.0 9.7 0.00 0.00 0.00 87 1011.0
20260507025523 12 26 1.6 11.3 0.00 0.00 0.00 86 1011.0
20260507025020 12 335 3.2 9.7 0.00 0.00 0.00 86 1011.0
20260507024518 13 268 4.8 8.0 0.00 0.00 0.00 86 1011.0
20260507024014 13 312 1.6 8.0 0.00 0.00 0.00 85 1011.0
20260507023510 13 119 3.2 11.3 0.00 0.00 0.00 84 1011.0
20260507023003 13 271 4.8 8.0 0.00 0.00 0.00 83 1011.1
20260507022459 13 69 1.6 4.8 0.00 0.00 0.00 84 1011.1
20260507021954 13 5 4.8 9.7 0.00 0.00 0.00 82 1011.1
20260507021450 14 338 6.4 9.7 0.00 0.00 0.00 82 1011.1
20260507020947 14 23 1.6 16.1 0.00 0.00 0.00 82 1011.0
20260507020444 14 299 3.2 11.3 0.00 0.00 0.00 81 1011.1
20260507015941 15 333 9.7 14.5 0.00 0.00 0.00 80 1011.0
20260507015440 15 321 1.6 6.4 0.00 0.00 0.00 80 1011.2
20260507014936 15 0 4.8 19.3 0.00 0.00 0.00 79 1011.0
20260507014433 15 331 3.2 9.7 0.00 0.00 0.00 80 1011.0
20260507013929 15 275 4.8 9.7 0.00 0.00 0.00 79 1011.2
20260507013426 15 305 3.2 8.0 0.00 0.00 0.00 80 1011.0
20260507012924 15 338 8.0 14.5 0.00 0.00 0.00 79 1011.1
20260507012420 15 160 0.0 11.3 0.00 0.00 0.00 80 1010.9
20260507011916 15 331 8.0 12.9 0.00 0.00 0.00 78 1011.1
20260507011413 15 150 4.8 11.3 0.00 0.00 0.00 78 1011.2
20260507010908 16 289 3.2 17.7 0.00 0.00 0.00 77 1010.9
20260507010403 16 86 3.2 12.9 0.00 0.00 0.00 76 1011.0
20260507005901 16 284 3.2 9.7 0.00 0.00 0.00 76 1011.1
20260507005357 16 238 3.2 8.0 0.00 0.00 0.00 76 1011.2
20260507004854 16 333 6.4 17.7 0.00 0.00 0.00 75 1011.1
20260507004351 16 278 1.6 20.9 0.00 0.00 0.00 75 1011.0
20260507003850 17 62 3.2 11.3 0.00 0.00 0.00 75 1010.9
20260507003344 17 306 3.2 9.7 0.00 0.00 0.00 74 1011.0
20260507002839 17 262 4.8 6.4 0.00 0.00 0.00 75 1011.0
20260507002335 17 292 4.8 11.3 0.00 0.00 0.00 74 1011.0
20260507001833 17 203 3.2 11.3 0.00 0.00 0.00 74 1010.8
20260507001329 17 297 8.0 11.3 0.00 0.00 0.00 73 1011.0
20260507000826 18 296 1.6 11.3 0.00 0.00 0.00 74 1010.8
20260507000321 18 14 3.2 11.3 0.00 0.00 0.00 74 1010.9
20260506235818 18 198 1.6 12.9 0.00 0.00 0.00 73 1010.9
20260506235314 18 294 4.8 11.3 0.00 0.00 0.00 72 1011.0
20260506234805 18 285 1.6 11.3 0.00 0.00 0.00 72 1010.8
20260506234303 18 274 4.8 6.4 0.00 0.00 0.00 73 1010.8
20260506233800 18 277 4.8 12.9 0.00 0.00 0.00 72 1010.9
20260506233256 19 272 4.8 12.9 0.00 0.00 0.00 72 1010.9
20260506232753 18 289 8.0 14.5 0.00 0.00 0.00 72 1010.9
20260506232248 19 310 8.0 14.5 0.00 0.00 0.00 71 1010.9
20260506231745 20 46 4.8 14.5 0.00 0.00 0.00 71 1011.0
20260506231244 20 329 3.2 11.3 0.00 0.00 0.00 69 1011.0
20260506230740 20 91 3.2 6.4 0.00 0.00 0.00 71 1010.8
20260506230237 20 324 6.4 9.7 0.00 0.00 0.00 71 1010.8
20260506225734 21 314 4.8 14.5 0.00 0.00 0.00 66 1010.9
20260506225231 21 308 3.2 8.0 0.00 0.00 0.00 68 1011.0
20260506224727 21 322 4.8 4.8 0.00 0.00 0.00 66 1010.8